Regional Weather Roundup
Issued by NWS Grand Forks, ND

Home | Current Version | Previous Version | Text Only | Print | Product List | Glossary Off
Versions: 1 2 3 4 5 6 7 8 9 10 11 12 13 14 15 16 17 18 19 20 21 22 23 24 25 26 27 28 29 30 31 32 33 34 35 36 37 38 39 40 41 42 43 44 45 46 47 48 49 50

000
ASUS43 KFGF 232031
RWRFGF
PRAIRIE TO PINES  WEATHER ROUNDUP
NATIONAL WEATHER SERVICE EASTERN NORTH DAKOTA/GRAND FORKS ND
200 PM CST MON JAN 23 2017

 **SATELLITE DATA USED TO AUGMENT SKY COVER AT AUTOMATED STATIONS**
 *****  WEATHER ACROSS EASTERN NORTH DAKOTA  *****

CITY           SKY/WX    TMP DP  RH WIND       PRES   REMARKS
GRAND FORKS    CLOUDY    32  23  69 W9        29.78S WCI  24
GRAND FRKS AFB CLOUDY    31  23  71 W15       29.78S WCI  20
DEVILS LAKE    CLOUDY    26  22  84 W18       29.75S WCI  13
FARGO          CLOUDY    35  26  69 NW7       29.79F
WAHPETON ARPT  CLOUDY    32  27  80 SW6       29.81S
$$

 ***** WEATHER ACROSS CENTRAL AND WESTERN NORTH DAKOTA  *****

CITY           SKY/WX    TMP DP  RH WIND       PRES   REMARKS
BISMARCK       CLOUDY    32  23  69 SW7       29.78S
MINOT          CLOUDY    26  20  77 NW10      29.75F WCI  16
JAMESTOWN      CLOUDY    29  23  78 W8        29.76F WCI  21
MINOT AFB      CLOUDY    23  19  85 NW15      29.74F WCI  10
GARRISON         N/A     27  22  81 N13       29.75F WCI  16
WILLISTON      CLOUDY    25  20  81 N7        29.77F WCI  17
DICKINSON      CLOUDY    24  20  84 E5        29.70F WCI  18
HETTINGER      FOG       24  21  88 E5        29.71F VSB 3/4 WCI  18
$$

 *****  OTHER AIRPORT OBSERVATIONS IN OUR AREA  *****

CITY           SKY/WX    TMP DP  RH WIND       PRES   REMARKS
WALHALLA       NOT AVBL
GRAFTON AIRPOR CLOUDY    30  27  86 W9        29.78S WCI  22
VALLEY CITY AR CLOUDY    28  27  93 W10       29.79S WCI  19
CANDO          NOT AVBL
CAVALIER APRT  CLOUDY    28  23  80 W16       29.75S WCI  17
GWINNER        CLOUDY    32  28  86 SW6       29.80S
SHEYENNE NWR     N/A     33  24  68 NW6       29.95S
ROLLA            N/A    N/A N/A N/A MISG        N/A
 ***** THE ABOVE OBSERVATIONS ARE NON NWS ARE NOT QUALITY
       CONTROLLED AND MAY MIS-REPORT RAIN FOR SNOW...
$$

  *****  WEATHER ACROSS NORTHERN MINNESOTA  *****

CITY           SKY/WX    TMP DP  RH WIND       PRES   REMARKS
FLAG ISLAND    CLOUDY    32  28  86 SW6       29.72S
WARROAD        CLOUDY    32  28  86 SW8       29.74S WCI  25
ROSEAU         FAIR      30  27  86 SW12      29.75R WCI  21
HALLOCK        FAIR      28  25  86 W10       29.75S WCI  19
THF RVR FALLS  CLOUDY    30  25  81 W10       29.78S WCI  21
BAUDETTE       CLOUDY    33  28  81 SW8       29.74S
WASKISH        CLOUDY    32  30  93 SW7       29.76S
CROOKSTON      CLOUDY    30  25  80 NW9       29.79F WCI  22
STEPHEN NDAWN    N/A     28  23  80 W7          N/A  WCI  21
GREENBUSH NDAW   N/A     28  25  86 SW9         N/A  WCI  20
$$
  *****  WEATHER ACROSS CENTRAL AND WEST MINNESOTA  *****

CITY           SKY/WX    TMP DP  RH WIND       PRES   REMARKS
FOSSTON        CLOUDY    30  27  86 SW8       29.78S WCI  23
BEMIDJI        CLOUDY    32  26  77 W6        29.76S
PARK RAPIDS    CLOUDY    32  23  69 NW7       29.77S
ELBOW LAKE     CLOUDY    31  26  80 W6        29.81S HAZE
WADENA         CLOUDY    30  25  80 W6        29.78S WCI  24
DETROIT LAKES  PTSUNNY   32  30  93 NW6       29.78F
MOORHEAD       CLOUDY    34  27  75 NW5       29.81R
FERGUS FALLS   CLOUDY    32  27  80 CALM      29.84S
MORRIS MN      CLOUDY    32  27  80 W3        29.80S
STAPLES        CLOUDY    30  25  80 W6        29.79S WCI  24
$$
  *****  WEATHER ELSEWHERE ACROSS MINNESOTA  *****

CITY           SKY/WX    TMP DP  RH WIND       PRES   REMARKS
DULUTH         CLOUDY    36  32  85 W8        29.75R
INTRNTL FALLS  CLOUDY    33  29  85 SW7       29.74F
ELY            CLOUDY    36  34  93 CALM      29.73S
CLOQUET        CLOUDY    36  32  87 W7        29.76S FOG
WHEATON        CLOUDY    32  25  74 W3        29.83S
BRAINERD       CLOUDY    31  27  85 W3        29.79F
HIBBING        CLOUDY    32  31  96 W8        29.75S WCI  25
ALEXANDRIA     CLOUDY    31  26  82 NW6       29.79F
SAINT CLOUD    CLOUDY    32  29  88 NW6       29.80F
MINNEAPOLIS    CLOUDY    34  28  79 W3        29.82F
$$

  *****  WEATHER ACROSS SOUTH DAKOTA  *****

CITY           SKY/WX    TMP DP  RH WIND       PRES   REMARKS
SIOUX FALLS    CLOUDY    31  28  89 E6        29.79F
BROOKINGS      CLOUDY    30  26  85 NE7       29.78F WCI  23
WATERTOWN      CLOUDY    29  26  89 CALM      29.77F
HURON          CLOUDY    31  26  82 E6        29.77F
SISSETON         N/A     32  27  81 CALM      29.80S
ABERDEEN       CLOUDY    31  23  72 CALM      29.79F
MITCHELL       CLOUDY    33  27  78 E7        29.78F
PIERRE         CLOUDY    29  26  89 E13       29.70F WCI  19
MOBRIDGE       CLOUDY    29  24  82 E5        29.73F WCI  24
RAPID CITY     CLOUDY    23  20  88 N14       29.61S WCI  11
$$

  *****  SOME WEATHER IN NEARBY STATES *****

CITY           SKY/WX    TMP DP  RH WIND       PRES   REMARKS
GLASGOW MT     LGT SNOW  25  21  85 N5        29.76S VSB 1   WCI  19
GREAT FALLS MT CLOUDY    22  18  85 NW7       29.75F WCI  13
CHEYENNE WY    CLOUDY    49  20  31 W17       29.52F
SCOTTSBLUFF NE FAIR      45  25  45 SE5       29.55F
OMAHA NE       CLOUDY    36  28  73 CALM      29.84F
DES MOINES IA  CLOUDY    34  29  82 NW5       29.85F
DAVENPORT IA   CLOUDY    38  34  85 NW13      29.81S
CHICAGO IL     CLOUDY    41  36  82 N8        29.73F
EAU CLAIRE WI  LGT RAIN  34  33  96 W8        29.79R FOG
LA CROSSE WI   CLOUDY    39  34  82 CALM      29.81S
$$

  *****  SOME NATIONAL WEATHER *****

CITY           SKY/WX    TMP DP  RH WIND       PRES   REMARKS
LA GUARDIA NY  CLOUDY    43  31  62 NE35G44   29.68F
RALEIGH NC     PTSUNNY   59  46  62 NW8       29.25R
ATLANTA GA     CLOUDY    53  47  79 NW23G30   29.47R
NEW ORLEANS LA FAIR      65  46  50 NW10      29.81F
OKLAHOMA CITY  FAIR      59  28  30 S14       29.81F
ALBUQUERQUE NM FAIR      54  27  35 S22G29    29.81F
SALT LAKE CITY PTSUNNY   40  28  62 S22G29    29.42F
LOS ANGELES CA RAIN      50  45  83 W15       29.89F FOG
BOISE ID       PTSUNNY   30  27  88 NW12      29.62S WCI  20
SEATTLE WA     PTSUNNY   42  34  73 N7        29.83R
$$

*** WEATHER ACROSS MANITOBA...SASKATCHEWAN AND ONTARIO ***
                ***ONTARIO***

CITY           SKY/WX    TMP DP  RH WIND       PRES   REMARKS
GERALDTON      FOG       34  34 100 E2        29.72F VSB 1/8
THUNDER BAY    CLOUDY    36  34  93 SW6       29.76S
SIOUX LOOKOUT  CLOUDY    34  32  93 CALM      29.70F
TORONTO        CLOUDY    39  32  75 E15G22    29.74F
BIG TROUT LK   LGT SNOW  25  23  93 E5        29.77S WCI  19
PICKLE LAKE    LGT SNOW  30  28  93 CALM      29.72F FOG
DRYDEN         LGT RAIN  34  34 100 SW6       29.70R FOG
KENORA         LGT SNOW  32  30  93 W8        29.71S FOG     WCI  25
$$
                *** MANITOBA***

CITY           SKY/WX    TMP DP  RH WIND       PRES   REMARKS
BRANDON        LGT SNOW  25  21  86 W16       29.69F WCI  12
DAUPHIN        CLOUDY    28  23  80 W14       29.66F WCI  17
ISLAND LAKE    FLURRIES  32  30  93 CALM      29.72S
PILOT MOUND      N/A     25  19  80 W10         N/A  WCI  15
THE PAS        FLURRIES  23  18  80 N9        29.77F WCI  13
THOMPSON       LGT SNOW  16  12  86 N10       29.84F DRFTSNOWWCI   3
WINNIPEG       CLOUDY    28  25  86 SW10      29.72S WCI  19
LYNN LAKE      FLURRIES   7   3  85 NE8       29.89F WCI  -6
CHURCHILL      FLURRIES  18  18 100 E15G22    30.03S WCI   3
GILLAM         LGT SNOW  28  25  86 NE7       29.83F WCI  21
$$
                ***SASKATCHEWAN***

CITY           SKY/WX    TMP DP  RH WIND       PRES   REMARKS
ESTEVAN        CLOUDY    21  18  86 W17       29.74F WCI   7
KINDERSLEY     CRYSTALS  14   9  79 NW10      29.80S WCI   1
LLOYDMINSTER   LGT SNOW  10   9  92 NW9       29.84F WCI  -2
PRINCE ALBERT  LGT SNOW  16  10  79 N9        29.81S WCI   4
REGINA         CLOUDY    19  16  86 NW15      29.74F WCI   5
YORKTON        FLURRIES  25  21  86 W17       29.66F WCI  11
N. BATTLEFORD  FLURRIES  10   7  85 NW14      29.85F WCI  -5
LA RONGE       FLURRIES  12   5  73 N5        29.89S WCI   4
SASKATOON      LGT SNOW  14  10  85 N9        29.82F DRFTSNOWWCI   2
SWIFT CURRENT  FLURRIES  16  14  93 NW14      29.74S WCI   1
$$
NOTE: THESE ARE AUTOMATED STATIONS WITH LIMITED QUALITY CONTROL
      "FAIR" INDICATES FEW OR NO CLOUDS BELOW 12,000 FEET WITH NO
      SIGNIFICANT WEATHER AND/OR OBSTRUCTIONS TO VISIBILITY.
      SKY/WX - SKY CONDITION AND SIGNIFICANT WEATHER.
      TMP - AIR TEMPERATURE.    DP   - DEWPOINT TEMPERATURE.
      RH  - RELATIVE HUMIDITY.  PRES - PRESSURE.
      HX  - HEAT INDEX.         WCI  - WIND CHILL INDEX.
$




USA.gov is the U.S. government's official web portal to all federal, state and local government web resources and services.